Tracking 28790 objects as of 19-Apr-2024
HD Live streaming from Space Station
objects crossing your sky now

ORBCOMM FM 4

Track ORBCOMM FM 4 now!
10-day predictions
ORBCOMM FM 4 is classified as:


NORAD ID: 25159
Int'l Code: 1998-007C
Perigee: 759.4 km
Apogee: 823.0 km
Inclination: 108.0 °
Period: 100.5 minutes
Semi major axis: 7162 km
RCS: 1.0023 m2 (large)
Launch date: February 10, 1998
Source: ORBCOMM (ORB)
Launch site: AIR FORCE WESTERN TEST RANGE (AFWTR)
Your satellite tracking list
Your tracking list is empty




NASA's NSSDC Master Catalog

Two Line Element Set (TLE):
1 25159U 98007C   24109.57897354  .00002866  00000-0  10961-2 0  9991
2 25159 107.9733 347.7661 0044387 268.4911  91.1142 14.32308474363371
Source of the keplerian elements: AFSPC